Regional Weather Roundup
Issued by NWS Grand Forks, ND

Home | Current Version | Previous Version | Graphics & Text | Print | Product List | Glossary On
Versions: 1 2 3 4 5 6 7 8 9 10 11 12 13 14 15 16 17 18 19 20 21 22 23 24 25 26 27 28 29 30 31 32 33 34 35 36 37 38 39 40 41 42 43 44 45 46 47 48 49 50
000
ASUS43 KFGF 290731
RWRFGF
PRAIRIE TO PINES  WEATHER ROUNDUP
NATIONAL WEATHER SERVICE EASTERN NORTH DAKOTA/GRAND FORKS ND
200 AM CDT THU SEP 29 2016

 **SATELLITE DATA USED TO AUGMENT SKY COVER AT AUTOMATED STATIONS**
 *****  WEATHER ACROSS EASTERN NORTH DAKOTA  *****

CITY           SKY/WX    TMP DP  RH WIND       PRES   REMARKS
GRAND FORKS    PTCLDY    41  39  93 CALM      30.43R FOG
GRAND FRKS AFB FAIR      40  39  97 NW2       30.43R
GRAND FRKS NWS   N/A     41 N/A N/A SE2         N/A
DEVILS LAKE    CLEAR     50  46  86 SE9       30.42S
FARGO          CLEAR     45  42  89 E3        30.42S
WAHPETON ARPT  SUNNY     46  43  87 CALM      30.43S
$$

 ***** WEATHER ACROSS CENTRAL AND WESTERN NORTH DAKOTA  *****

CITY           SKY/WX    TMP DP  RH WIND       PRES   REMARKS
BISMARCK       CLEAR     43  42  97 NE6       30.39R
MINOT          CLEAR     44  43  96 E7        30.34F
JAMESTOWN      CLEAR     41  39  93 CALM      30.41S FOG
MINOT AFB      CLEAR     42  41  96 SE6       30.34S
GARRISON         N/A     47  46  97 SE7       30.35S
WILLISTON      CLEAR     58  37  45 SE12      30.27F
DICKINSON      CLEAR     49  41  74 SE15      30.31S
HETTINGER      CLEAR     49  42  77 SE7       30.35S
$$

 *****  OTHER AIRPORT OBSERVATIONS IN OUR AREA  *****

CITY           SKY/WX    TMP DP  RH WIND       PRES   REMARKS
WALHALLA       FAIR      39  39 100 CALM      30.44R
GRAFTON AIRPOR FOG       43  43 100 CALM      30.45R VSB 1
VALLEY CITY AR FAIR      46  46 100 CALM      30.44R
CANDO          FAIR      41  41 100 SE7       30.43S
CAVALIER APRT  FAIR      41  41 100 CALM      30.43S
GWINNER        FAIR      41  41 100 N5        30.42S
SHEYENNE NWR     N/A     43  42  96 E2        29.95
ROLLA          FAIR      45  45 100 S6        30.41S
 ***** THE ABOVE OBSERVATIONS ARE NON NWS ARE NOT QUALITY
       CONTROLLED AND MAY MIS-REPORT RAIN FOR SNOW...
$$

  *****  WEATHER ACROSS NORTHERN MINNESOTA  *****

CITY           SKY/WX    TMP DP  RH WIND       PRES   REMARKS
FLAG ISLAND    CLOUDY    57  48  72 S5        30.44R
WARROAD        CLOUDY    50  46  87 CALM      30.46R
ROSEAU         CLOUDY    48  43  81 CALM      30.45R
HALLOCK        CLEAR     45  43  93 E3        30.44R
THF RVR FALLS  CLEAR     46  43  89 CALM      30.45R
BAUDETTE       CLOUDY    47  46  97 CALM      30.45R
WASKISH        CLOUDY    48  46  93 CALM      30.45R
CROOKSTON      FAIR      48  45  87 SE3       30.44R
STEPHEN NDAWN    N/A     45  43  93 CALM        N/A
GREENBUSH NDAW   N/A     43  41  93 CALM        N/A
$$
  *****  WEATHER ACROSS CENTRAL AND WEST MINNESOTA  *****

CITY           SKY/WX    TMP DP  RH WIND       PRES   REMARKS
FOSSTON        FAIR      43  39  87 CALM      30.45R
BEMIDJI        CLOUDY    49  47  93 CALM      30.44R
PARK RAPIDS    CLOUDY    54  42  64 CALM      30.43R
ELBOW LAKE     CLOUDY    50  46  86 SE5       30.43S
WADENA         CLOUDY    52  46  82 CALM      30.43R
DETROIT LAKES  CLEAR     46  45  93 CALM      30.44R
MOORHEAD       CLEAR     45  43  93 E3        30.44R
FERGUS FALLS   CLEAR     46  45  93 E5        30.45S
MORRIS MN      CLEAR     46  45  93 CALM      30.42R
STAPLES        CLOUDY    52  46  82 CALM      30.43S
$$
  *****  WEATHER ELSEWHERE ACROSS MINNESOTA  *****

CITY           SKY/WX    TMP DP  RH WIND       PRES   REMARKS
DULUTH         CLOUDY    52  50  93 N3        30.42R
INTRNTL FALLS  CLOUDY    52  49  89 CALM      30.45R
ELY            CLOUDY    52  50  93 CALM      30.44R
CLOQUET        CLOUDY    52  48  87 NW3       30.42R
WHEATON        CLEAR     45  43  93 CALM      30.44S
BRAINERD       CLOUDY    53  50  89 NE3       30.43R
HIBBING        CLOUDY    51  50  96 CALM      30.43R
ALEXANDRIA     CLOUDY    48  45  89 NE3       30.43S
SAINT CLOUD    CLEAR     49  48  97 NE3       30.41R
MINNEAPOLIS    CLEAR     49  47  93 NW5       30.39R
$$

  *****  WEATHER ACROSS SOUTH DAKOTA  *****

CITY           SKY/WX    TMP DP  RH WIND       PRES   REMARKS
SIOUX FALLS    CLOUDY    46  44  93 CALM      30.40S
BROOKINGS      CLOUDY    43  42  97 NE3       30.40S
WATERTOWN      CLOUDY    40  39  97 CALM      30.40F
HURON          CLOUDY    40  39  97 CALM      30.40S
SISSETON         N/A     39  38  96 CALM      30.41R
ABERDEEN       CLOUDY    41  38  89 CALM      30.41R
MITCHELL       CLOUDY    42  41  96 CALM      30.40S
PIERRE         CLEAR     43  38  82 E8        30.36S
MOBRIDGE       CLEAR     49  42  77 E9        30.36S
RAPID CITY     CLEAR     47  37  68 SE5       30.34F
$$

  *****  SOME WEATHER IN NEARBY STATES *****

CITY           SKY/WX    TMP DP  RH WIND       PRES   REMARKS
GLASGOW MT     CLEAR     57  52  83 E12       30.15S
GREAT FALLS MT CLEAR     46  43  89 SW8       30.14F
CHEYENNE WY    CLEAR     51  35  54 S7        30.43F
SCOTTSBLUFF NE CLEAR     54  41  61 E12       30.36R
OMAHA NE       CLEAR     48  44  86 NW6       30.35S
DES MOINES IA  PTCLDY    55  50  83 N9        30.30R
DAVENPORT IA   CLEAR     50  48  93 N10       30.21F
CHICAGO IL     MOCLDY    60  55  83 N17       30.07S
EAU CLAIRE WI  CLEAR     50  49  96 N6        30.35S
LA CROSSE WI   CLEAR     56  52  86 N7        30.31S
$$

  *****  SOME NATIONAL WEATHER *****

CITY           SKY/WX    TMP DP  RH WIND       PRES   REMARKS
LA GUARDIA NY  CLOUDY    62  57  83 NE25G33   30.23F
RALEIGH NC     TSTM      66  65  96 SE9       29.98F
ATLANTA GA     CLEAR     64  49  57 SW3       29.93F
NEW ORLEANS LA CLEAR     77  70  79 W5        30.00R
OKLAHOMA CITY  PTCLDY    60  47  61 NE13      30.25S
ALBUQUERQUE NM CLOUDY    69  31  24 E6        30.33S
SALT LAKE CITY MOCLDY    65  54  67 SE7       30.19F
LOS ANGELES CA PTCLDY    72  62  71 W8        29.95S
BOISE ID       PTCLDY    74  33  22 SE9       29.93S
SEATTLE WA     PTCLDY    53  46  77 N8        30.05S
$$

*** WEATHER ACROSS MANITOBA...SASKATCHEWAN AND ONTARIO ***
                ***ONTARIO***

CITY           SKY/WX    TMP DP  RH WIND       PRES   REMARKS
GERALDTON      CLOUDY    52  50  93 N6        30.44R
THUNDER BAY    PTCLDY    43  43 100 W3        30.44R
SIOUX LOOKOUT  CLOUDY    50  48  93 CALM      30.46R
TORONTO        PTCLDY    61  57  88 NE12G18   30.18S
BIG TROUT LK   CLEAR     46  45  93 W7        30.42R
PICKLE LAKE    NOT AVBL
DRYDEN         CLOUDY    52  48  87 CALM      30.46R
KENORA         CLOUDY    52  48  87 SE5       30.46R
$$
                *** MANITOBA***

CITY           SKY/WX    TMP DP  RH WIND       PRES   REMARKS
BRANDON        CLEAR     41  39  93 E5        30.40R
DAUPHIN        CLOUDY    46  45  93 W5        30.39F
ISLAND LAKE    NOT AVBL
PILOT MOUND      N/A     41  39  93 SE6         N/A
THE PAS        CLOUDY    50  41  71 SE7       30.39F
THOMPSON       PTCLDY    30  28  93 CALM      30.40R
WINNIPEG       CLEAR     46  45  93 S7        30.44R
LYNN LAKE      CLEAR     36  32  87 SW7       30.35S
CHURCHILL      CLEAR     45  32  61 SW12      30.25R
GILLAM         CLEAR     37  32  81 SW6       30.38R
$$
                ***SASKATCHEWAN***

CITY           SKY/WX    TMP DP  RH WIND       PRES   REMARKS
ESTEVAN        PTCLDY    50  45  81 E15       30.29F
KINDERSLEY     MOCLDY    45  39  81 E13       30.22F
LLOYDMINSTER   CLOUDY    46  39  76 SE8       30.27S
PRINCE ALBERT  CLOUDY    46  41  81 NE6       30.33R
REGINA         MOCLDY    54  37  54 SE17      30.23S
YORKTON        PTCLDY    50  45  81 SE13      30.32F
N. BATTLEFORD  CLOUDY    46  39  76 NE7       30.30F
LA RONGE       PTCLDY    39  34  81 CALM      30.34F
SASKATOON      LGT RAIN  48  46  93 NE12      30.27F
SWIFT CURRENT  PTCLDY    45  41  87 E7        30.18F
$$
NOTE: THESE ARE AUTOMATED STATIONS WITH LIMITED QUALITY CONTROL
      "FAIR" INDICATES FEW OR NO CLOUDS BELOW 12,000 FEET WITH NO
      SIGNIFICANT WEATHER AND/OR OBSTRUCTIONS TO VISIBILITY.
      SKY/WX - SKY CONDITION AND SIGNIFICANT WEATHER.
      TMP - AIR TEMPERATURE.    DP   - DEWPOINT TEMPERATURE.
      RH  - RELATIVE HUMIDITY.  PRES - PRESSURE.
      HX  - HEAT INDEX.         WCI  - WIND CHILL INDEX.
$




USA.gov is the U.S. government's official web portal to all federal, state and local government web resources and services.